Regional Weather Roundup
Issued by NWS San Angelo, TX

Home | Current Version | Previous Version | Text Only | Print | Product List | Glossary On
Versions: 1 2 3 4 5 6 7 8 9 10 11 12 13 14 15 16 17 18 19 20 21 22 23 24 25 26 27 28 29 30 31 32 33 34 35 36 37 38 39 40 41 42 43 44 45 46 47 48 49 50
000
ASUS44 KSJT 220010
RWRSJT
WEST CENTRAL TEXAS REGIONAL WEATHER ROUNDUP
NATIONAL WEATHER SERVICE SAN ANGELO TX
700 PM CDT SAT APR 21 2018

NOTE: "FAIR" INDICATES FEW OR NO CLOUDS BELOW 12,000 FEET WITH NO
SIGNIFICANT WEATHER AND/OR OBSTRUCTIONS TO VISIBILITY.

TXZ049-054-064>066-071>073-076>078-098-099-113-114-127-128-139-140-
154-155-168>170-220100
...LOCATIONS ACROSS WEST CENTRAL TEXAS...

CITY           SKY/WX    TMP DP  RH WIND       PRES   REMARKS
SAN ANGELO     SUNNY     81  37  20 N18       29.92R
ABILENE        MOSUNNY   63  48  58 N22G31    30.00R
DYESS AFB      MOSUNNY   65  45  49 N20G28    30.00R
JUNCTION       SUNNY     84  26  12 N10       29.90R
SWEETWATER     SUNNY     65  45  48 N16       30.05R
BROWNWOOD      SUNNY     68  54  60 N21G32    29.93R
COLEMAN        CLEAR     69  48  48 N25G32    29.95R
SONORA         SUNNY     81  28  15 NW10      29.98R
OZONA          FAIR      79  23  12 NW17G25   29.97S
BRADY          SUNNY     81  27  13 NW17      29.90R
$$

TEXAS PANHANDLE/OKLAHOMA PANHANDLE

CITY           SKY/WX    TMP DP  RH WIND       PRES   REMARKS
AMARILLO       CLOUDY    49  42  77 N16       30.14R
BORGER         CLOUDY    50  43  77 N13G22    30.15R
CANADIAN       CLOUDY    49  48  97 N10       30.13R
DALHART        FAIR      49  40  71 NE16      30.15R
DUMAS          PTCLDY    48  38  69 N12       30.14R
GUYMON         NOT AVBL
HEREFORD       CLOUDY    53  42  67 N12       30.15S
PAMPA          CLOUDY    48  46  91 N16       30.14R
PERRYTON       CLOUDY    47  45  93 N14       30.13R
$$

SOUTHERN PANHANDLE/SOUTH PLAINS/ROLLING PLAINS

CITY           SKY/WX    TMP DP  RH WIND       PRES   REMARKS
LUBBOCK        PTSUNNY   57  43  59 N14G23    30.11R
SNYDER         SUNNY     65  46  49 NW22G29   30.05R
CHILDRESS      CLOUDY    58  48  69 N18       30.08R
SEMINOLE       CLEAR     64  36  36 NE15G21   30.09R
$$

PERMIAN BASIN

CITY           SKY/WX    TMP DP  RH WIND       PRES   REMARKS
MIDLAND        SUNNY     71  39  31 N21       30.03R
ODESSA           N/A     70  37  29 NE18G29   30.03R
WINK           SUNNY     78  22  12 N17       29.98R
$$

FAR WEST/SOUTHWEST MOUNTAINS/TRANS PECOS

CITY           SKY/WX    TMP DP  RH WIND       PRES   REMARKS
ALPINE         CLEAR     76  13   9 NW10      30.10R
DRYDEN           N/A     85  21   9 N18G26    29.90R
EL PASO        MOSUNNY   76  25  15 NW14      30.03S
FORT STOCKTON  SUNNY     75  23  14 N15       30.01R
GUADALUPE PASS NOT AVBL
MARFA          SUNNY     72  15  11 NW15      30.09
PECOS          CLEAR     78  22  12 N12       29.99R
$$

DALLAS/FORT WORTH METROPLEX

CITY           SKY/WX    TMP DP  RH WIND       PRES   REMARKS
DFW AIRPORT    TSTM      61  61 100 N13       29.90F FOG
FTW MEACHAM    CLOUDY    64  63  96 N15       29.91F FOG
DAL-EXECUTIVE  TSTM      64  61  90 NE7       29.92R FOG
GRAND PRAIRIE  CLOUDY    64  64 100 N9        29.93R
ADDISON        CLOUDY    63  61  94 NE7       29.94R
MESQUITE       CLOUDY    61  61 100 CALM      29.93S FOG
LANCASTER      CLOUDY    62  61  95 NE10      29.92R FOG
$$

NORTH CENTRAL TEXAS

CITY           SKY/WX    TMP DP  RH WIND       PRES   REMARKS
SHRMAN/DENISON LGT RAIN  56  55  99 N9        29.99R
GAINESVILLE    CLOUDY    52  51  96 N9        29.99S FOG
BRIDGEPORT     CLOUDY    54  54 100 N12       29.99R
DENTON         LGT RAIN  56  56 100 N13       29.95S FOG
WAXAHACHIE     CLOUDY    64  64 100 NE8       29.89F FOG
GRANBURY       PTCLDY    66  60  83 NW10      29.92R
$$

WESTERN NORTH TEXAS

CITY           SKY/WX    TMP DP  RH WIND       PRES   REMARKS
WICHITA FALLS  CLOUDY    55  49  80 N13       30.03R
VERNON         MOCLDY    59  49  68 N14G20    30.05S
BRECKENRIDGE   CLOUDY    60  49  68 N16G24    30.01R
COMANCHE       PTSUNNY   68  57  68 N24G31    29.93R
$$

CENTRAL AND SOUTH CENTRAL TEXAS

CITY           SKY/WX    TMP DP  RH WIND       PRES   REMARKS
AUSTIN/BERGSTM PTSUNNY   71  69  93 E5        29.87F
WACO           MOSUNNY   70  65  84 S13       29.85F
HILLSBORO      MOCLDY    68  66  93 SE16      29.84F
TEMPLE         MOSUNNY   71  66  84 S10       29.88F
KILLEEN-GRAY   MOSUNNY   72  63  73 SE6       29.88F
FORT HOOD      SUNNY     71  64  80 S8        29.84F
GEORGETOWN     SUNNY     71  66  84 SE6       29.89F
LAGO VISTA     FAIR      73  67  79 CALM      29.89S
SAN MARCOS     MOSUNNY   75  67  76 CALM      29.88R
NEW BRAUNFELS  SUNNY     76  67  73 CALM      29.86S
RANDOLPH AFB   SUNNY     75  68  78 CALM      29.86F
SAN ANTONIO    MOSUNNY   78  64  61 W6        29.87F
STINSON        MOSUNNY   80  68  66 CALM      29.84F
PLEASANTON     NOT AVBL
LA GRANGE      TSTM      71  70  95 SE7       29.82F
GIDDINGS       HVY RAIN  66  65  97 CALM      29.88S VSB 1
$$

EAST TEXAS

CITY           SKY/WX    TMP DP  RH WIND       PRES   REMARKS
PARIS          CLOUDY    57  56  96 E10       29.96F
CLARKSVILLE    NOT AVBL
TYLER          HVY RAIN  62  62 100 N5        29.92R VSB 1
LONGVIEW       LGT RAIN  62  62 100 E7        29.90F FOG
PALESTINE      RAIN      65  64  97 W3        29.92R
NACOGDOCHES    TSTM      66  64  94 SE14      29.92S FOG
$$

TEXAS HILL COUNTRY AND EDWARDS PLATEAU

CITY           SKY/WX    TMP DP  RH WIND       PRES   REMARKS
LLANO          CLEAR     84  52  32 CALM      29.89R
HORSESHOE BAY  FAIR      81  60  48 CALM      29.87R
KERRVILLE      SUNNY     80  56  43 S5        29.90R
FREDERICKSBRG  MOSUNNY   79  52  39 SW6       29.89R
ROCKSPRINGS    CLEAR     82  19   9 NW16G23   29.98R
HONDO          SUNNY     82  60  47 CALM      29.87S
UVALDE         CLEAR     82  58  44 E6        29.87S
DEL RIO        SUNNY     90  26  10 N6        29.83S
$$

SOUTHEAST TEXAS

CITY           SKY/WX    TMP DP  RH WIND       PRES   REMARKS
COLLEGE STN    TSTM      70  69  97 S12       29.88S
CALDWELL       RAIN      69  67  96 SE8       29.88S VSB 1
CROCKETT       LGT RAIN  66  64  94 SE7       29.92F
BRENHAM        CLOUDY    72  69  90 E5        29.87F
HUNTSVILLE     CLOUDY    71  66  84 VRB6      29.90S
CONROE         CLOUDY    70  68  93 SE12      29.90F
HOUSTON BUSH   CLOUDY    71  69  93 SE14      29.90F
HOUSTON HOBBY  CLOUDY    73  68  84 SE12      29.90F
PERLAND        CLOUDY    73  68  84 SE10G20   29.91F
WHARTON        CLOUDY    70  66  87 SE7       29.90S
$$

THE UPPER TEXAS COAST

CITY           SKY/WX    TMP DP  RH WIND       PRES   REMARKS
ORANGE         CLOUDY    71  66  85 SE13      29.98F
PORT ARTHUR    MOCLDY    70  64  81 SE16      29.95F
GALVESTON      MOCLDY    72  70  93 SE15      29.92F
ANGLETON       PTSUNNY   75  67  76 SE15G21   29.89S
BAY CITY       LGT RAIN  74  67  80 SE12      29.90S
$$

TEXAS COASTAL BEND, RIO GRANDE PLAINS DEEP SOUTH TEXAS

CITY           SKY/WX    TMP DP  RH WIND       PRES   REMARKS
VICTORIA       CLOUDY    72  68  87 SE18      29.86F
BEEVILLE       HVY RAIN  71  70  97 W5        29.87R
ROCKPORT       CLOUDY    73  69  87 SE13G23   29.86R
PORT ARANSAS   NOT AVBL
PORT LAVACA    LGT RAIN  72  68  88 SE15      29.87S
CORPUS CHRISTI CLOUDY    76  71  85 S20       29.85S
KINGSVILLE NAS CLOUDY    78  71  79 SE17G23   29.84
COTULLA        SUNNY     82  65  56 N6        29.85S
LAREDO         SUNNY     84  64  50 N7        29.85R
BROWNSVILLE    PTSUNNY   80  72  76 SE18G25   29.86R
PORT ISABEL    PTSUNNY   78  70  76 SE20      29.85R
HEBBRONVILLE   CLEAR     84  60  43 CALM      29.86R
MCALLEN        MOSUNNY   84  72  67 SE20G26   29.82S
WESLACO        CLOUDY    82  69  66 S16G22    29.83R
FALFURRIAS     CLOUDY    82  70  68 E9        29.82S
EDINBURG       MOCLDY    85  69  59 SE14      29.83R
$$



USA.gov is the U.S. government's official web portal to all federal, state and local government web resources and services.